User: anonymous   Login
Location: Newark
(35.8833°N, 14.5000°E)
Time: 15:51:08
(UTC+00:00)
Language:

KKS-1 - Orbit

View from above orbital plane
View from above orbital plane
View from above satellite
View from above satellite

Ground track
Ground track

The orbit data is extracted from the following two-line orbital elements,

1 33499U 09002H   19325.24496494  .00000118  00000-0  25314-4 0  9990
2 33499  98.3360 168.8319 0010349  73.5841 286.6504 14.75480872582169
Epoch (UTC): 21 November 2019 05:52:44
Eccentricity: 0.0010349
inclination: 98.3360°
perigee height: 636 km
apogee height: 651 km
right ascension of ascending node: 168.8319°
argument of perigee: 73.5841°
revolutions per day: 14.75480872
mean anomaly at epoch: 286.6504°
orbit number at epoch: 58216

The dashed part of the orbit path shows where the satellite is in the earth's shadow,  

DLR